Location: North Evanston
(42.0634°N, 87.6976°W)
Time: 23:10:04
(UTC+00:00)

Transit 2A - Pass Details

Date: 10 May 2026
Orbit: 595 x 949 km, 66.7° (Epoch: 5 June)

Event Time Altitude Azimuth Distance (km) Brightness Sun altitude
Rises 23:18:52 0° 229° (SW) 3,596 10.1 17.0°
Reaches altitude 10° 23:21:35 10° 236° (SW) 2,636 9.6 16.5°
Maximum altitude 23:27:27 44° 307° (NW) 1,227 8.1 15.4°
Drops below altitude 10° 23:32:59 10° 19° (NNE) 2,483 8.6 14.4°
Sets 23:35:29 0° 26° (NNE) 3,367 9.2 14.0°
